"Pseudo-MPEC" for P113nXE

Created 2020 Aug 4 23:07:11 UT using Find_Orb

Click here for an explanation of pseudo-MPECs

 
 Astrometry: 
     P113nXE  C2020 07 30.@/\iD'bO)-L0@,@9Q:Astrometry:mZd#'^E'%i64LZY-Bbj)iTF51
     P113nXE  C2020 07 30JuqjhH^)oGME`rQo9fAsyredacted;)o;sx^N3yl!P_clickqH,DF51
     P113nXE  C2020 07 30GlMImCbhere35fG^for\A6tI9explanation.H+dI6I@^/,Z3%(VF51

Station data:
(F51) Pan-STARRS 1, Haleakala  (N20.707235 W156.255910)  US/Hawaii.
   Observers N. Primak, A. Schultz, S. Watters, J. Thiel, T. Goggia. Measurer
   PS1 Science Consortium. 1.8-m Ritchey-Chrétien + CCD.

Orbital elements:  P113nXE
   Perihelion 2020 Aug 17.397149 +/- 30.3 TT =  9:31:53 (JD 2459078.897149)
Epoch 2020 Jul 31.0 TT = JDT 2459061.5   Earth MOID: 0.0201   AutoNEOCP
M 344.42742789 +/- 48               (J2000 ecliptic)
n   0.89512207 +/- 0.723            Peri.  201.03903 +/- 70
a   1.06630440 +/- 0.574            Node   125.92836 +/- 70
e   0.0308057 +/- 0.247             Incl.    4.44359 +/- 57
P   1.10/402.17d           H 26.7   G  0.15   U 12.5  SR
q 1.03345606 +/- 0.414    Q 1.09915274 +/- 17
From 3 observations 2020 July 30 (29.2 min); mean residual 0".11
Residuals in arcseconds: 
200730 F51  .11-  .03-    200730 F51  .22+  .05+    200730 F51  .11-  .03-    

Ephemerides (geocentric):
Date (UTC) HH   RA              Dec         delta   r     elong  mag " sig PA
---- -- -- --  -------------   -----------  ------ ------ -----  --- ---- ---
2020 08 04 23  01 33 45.743   -06 44 21.09  .04849 1.0341 112.7 22.5  63d   0
2020 08 05 00  01 33 59.226   -06 47 08.12  .04850 1.0341 112.7 22.5  64d   0
2020 08 05 01  01 34 12.700   -06 49 55.10  .04851 1.0341 112.7 22.5  64d   1
2020 08 05 02  01 34 26.165   -06 52 42.01  .04851 1.0341 112.7 22.5  64d   1
2020 08 05 03  01 34 39.621   -06 55 28.87  .04852 1.0341 112.7 22.5  64d   1
2020 08 05 04  01 34 53.068   -06 58 15.67  .04853 1.0341 112.7 22.5  64d   1
2020 08 05 05  01 35 06.506   -07 01 02.41  .04854 1.0341 112.7 22.5  64d   1
2020 08 05 06  01 35 19.935   -07 03 49.09  .04855 1.0341 112.7 22.5  64d   1
2020 08 05 07  01 35 33.355   -07 06 35.71  .04856 1.0341 112.7 22.5  65d   1
2020 08 05 08  01 35 46.767   -07 09 22.27  .04857 1.0341 112.7 22.5  65d   1
2020 08 05 09  01 36 00.169   -07 12 08.76  .04858 1.0341 112.7 22.5  65d   1
2020 08 05 10  01 36 13.562   -07 14 55.19  .04859 1.0341 112.7 22.5  65d   1
2020 08 05 11  01 36 26.946   -07 17 41.57  .04860 1.0341 112.7 22.5  65d   1
2020 08 05 12  01 36 40.321   -07 20 27.87  .04861 1.0341 112.7 22.5  65d   1
2020 08 05 13  01 36 53.687   -07 23 14.12  .04862 1.0341 112.7 22.5  65d   0
2020 08 05 14  01 37 07.043   -07 26 00.29  .04863 1.0340 112.7 22.5  65d   0
2020 08 05 15  01 37 20.391   -07 28 46.41  .04864 1.0340 112.7 22.5  66d   0
2020 08 05 16  01 37 33.729   -07 31 32.46  .04865 1.0340 112.7 22.5  66d   0
2020 08 05 17  01 37 47.058   -07 34 18.44  .04866 1.0340 112.7 22.5  66d   0
2020 08 05 18  01 38 00.378   -07 37 04.36  .04867 1.0340 112.7 22.5  66d   0
2020 08 05 19  01 38 13.689   -07 39 50.20  .04868 1.0340 112.7 22.5  66d   0
2020 08 05 20  01 38 26.990   -07 42 35.99  .04869 1.0340 112.7 22.5  66d   0
2020 08 05 21  01 38 40.282   -07 45 21.70  .04870 1.0340 112.6 22.5  66d   0
2020 08 05 22  01 38 53.565   -07 48 07.35  .04871 1.0340 112.6 22.5  66d   0
2020 08 05 23  01 39 06.839   -07 50 52.92  .04872 1.0340 112.6 22.5  66d   0
2020 08 06 00  01 39 20.103   -07 53 38.43  .04873 1.0340 112.6 22.5  66d   0
2020 08 06 01  01 39 33.357   -07 56 23.87  .04874 1.0340 112.6 22.5  66d   0
2020 08 06 02  01 39 46.603   -07 59 09.23  .04875 1.0340 112.6 22.5  66d   0
2020 08 06 03  01 39 59.839   -08 01 54.53  .04876 1.0340 112.6 22.5  67d   0
2020 08 06 04  01 40 13.065   -08 04 39.75  .04877 1.0340 112.6 22.5  67d   0
2020 08 06 05  01 40 26.283   -08 07 24.91  .04878 1.0340 112.6 22.5  67d   0
2020 08 06 06  01 40 39.490   -08 10 09.99  .04879 1.0340 112.6 22.5  67d   0
2020 08 06 07  01 40 52.688   -08 12 55.00  .04880 1.0340 112.6 22.5  67d   0
2020 08 06 08  01 41 05.877   -08 15 39.93  .04881 1.0340 112.6 22.5  67d   0
2020 08 06 09  01 41 19.056   -08 18 24.79  .04882 1.0340 112.6 22.5  67d   0
2020 08 06 10  01 41 32.226   -08 21 09.58  .04884 1.0340 112.6 22.5  67d   0
2020 08 06 11  01 41 45.386   -08 23 54.29  .04885 1.0340 112.6 22.5  67d   0
2020 08 06 12  01 41 58.537   -08 26 38.93  .04886 1.0340 112.6 22.5  67d   0
2020 08 06 13  01 42 11.678   -08 29 23.49  .04887 1.0340 112.6 22.5  67d   0
2020 08 06 14  01 42 24.809   -08 32 07.97  .04888 1.0339 112.6 22.5  67d   0
2020 08 06 15  01 42 37.931   -08 34 52.38  .04889 1.0339 112.6 22.5  67d   0
2020 08 06 16  01 42 51.043   -08 37 36.71  .04890 1.0339 112.6 22.5  67d   0
2020 08 06 17  01 43 04.145   -08 40 20.97  .04891 1.0339 112.6 22.5  67d   0
2020 08 06 18  01 43 17.238   -08 43 05.15  .04893 1.0339 112.6 22.5  67d   0
2020 08 06 19  01 43 30.321   -08 45 49.24  .04894 1.0339 112.6 22.5  67d   0
2020 08 06 20  01 43 43.394   -08 48 33.26  .04895 1.0339 112.6 22.5  67d   0
2020 08 06 21  01 43 56.458   -08 51 17.20  .04896 1.0339 112.6 22.5  67d   0
2020 08 06 22  01 44 09.512   -08 54 01.06  .04897 1.0339 112.6 22.5  67d   0